This is the latest recevied weather packets stored in our database for station/object YF9UAG-17. If no packets are shown the sender has not sent any weather packets the latest 10 day(s).
| Time | Temp. | Humidity | Pressure | Rain* | Wind** | Luminosity | Snow |
|---|---|---|---|---|---|---|---|
| 1787395265 | 30.56° C | 53% | 1032.2 hPa | - | - | - | - |
| 1787394661 | 30.56° C | 53% | 1032 hPa | - | - | - | - |
| 1787394058 | 30.56° C | 52% | 1031.9 hPa | - | - | - | - |
| 1787393455 | 30.56° C | 53% | 1031.8 hPa | - | - | - | - |
| 1787392852 | 30.56° C | 53% | 1031.6 hPa | - | - | - | - |
| 1787392249 | 30.56° C | 53% | 1031.5 hPa | - | - | - | - |
| 1787391646 | 30.56° C | 54% | 1031.3 hPa | - | - | - | - |
| 1787391043 | 30.56° C | 55% | 1031 hPa | - | - | - | - |
| 1787390439 | 30.56° C | 55% | 1030.8 hPa | - | - | - | - |
| 1787389836 | 30.56° C | 54% | 1030.6 hPa | - | - | - | - |
| 1787389234 | 31.67° C | 53% | 1030.4 hPa | - | - | - | - |
| 1787388630 | 32.22° C | 53% | 1030.3 hPa | - | - | - | - |
| 1787388028 | 31.11° C | 54% | 1030.2 hPa | - | - | - | - |
| 1787387425 | 31.11° C | 51% | 1030.1 hPa | - | - | - | - |
| 1787386821 | 31.11° C | 53% | 1030.2 hPa | - | - | - | - |
| 1787386218 | 30.56° C | 54% | 1030.1 hPa | - | - | - | - |
| 1787385615 | 30.56° C | 53% | 1030.1 hPa | - | - | - | - |
| 1787385012 | 30.56° C | 53% | 1030.1 hPa | - | - | - | - |
| 1787384409 | 30.56° C | 52% | 1030.2 hPa | - | - | - | - |
| 1787383806 | 30.56° C | 51% | 1030.1 hPa | - | - | - | - |
| 1787383203 | 30° C | 51% | 1030 hPa | - | - | - | - |
| 1787382600 | 30° C | 51% | 1030.1 hPa | - | - | - | - |
| 1787381997 | 30.56° C | 50% | 1030.1 hPa | - | - | - | - |
| 1787381394 | 31.67° C | 50% | 1030.2 hPa | - | - | - | - |
| 1787380791 | 31.11° C | 50% | 1030.3 hPa | - | - | - | - |
* Rain since midnight (hover to see other rain measurements)
** Current wind speed in m/s (hover to see current wind gust speed)